Location: Basse Occidentale du Courleau
(48.3833°N, 4.8333°W)
Time: 09:48:46
(UTC+00:00)

Meteor 2-2 Rocket - Pass Details

Date: 05 July 2020
Orbit: 852 x 929 km, 81.3° (Epoch: 07 August)

Event Time Altitude Azimuth Distance (km) Brightness Sun altitude
Rises 22:23:45 0° 348° (NNW) 3,527 9.0 -14.0°
Reaches altitude 10° 22:26:14 10° 349° (N) 2,571 8.0 -14.2°
Maximum altitude 22:32:06 84° 77° (ENE) 889 4.3 -14.7°
Enters shadow 22:35:59 22° 166° (SSE) 1,825 5.3 -14.9°
